Погода Тегюльтя-Терде

Погода Тегюльтя-Терде : погода сейчас, прогноз погоды и архив. Всё, что Вы хотите узнать о погоде Тегюльтя-Терде!

Поиск расширенной информации на нашем сайте:

Другие новости

Новости СМИ2

Главная страница сайта

Новости сайта

03.07.2017

Напоминаем, что на нашем специализированном сайте Метеоцентр.Азия вы можете получить высокодетализированные автоматические прогнозы погоды по пунктам России, СНГ и мира в авиационном формате (включающие направление и скорость ветра, видимость, явления погоды, количество и форму облачности, нижнюю и верхнюю границу облачности).

Рекомендуем: предлагаются помещения сдам офис Бизнес центр Варшавка Sky у метро Чертановская

Погода Тегюльтя-Терде - сегодня

Время (UTC), дата Ветер
(°,м/с) 
Видим.   Явления Облачность Т
(°С)
Тd
(°С)
f(%) Тe
(°С)
Pmin
(гПа)
dP
(гПа)
Po
(мм)
O2
(г/м3)
Тmin Tmax R s Состояние
почвы
18 17.09.17 тихо ()   20000 м  туман  ясно верхняя 
[Ci fib]
-2.3 -2.6 98 -2  1015.1  745  303           
21 17.09.17 тихо ()   1000 м  туман  8/0 средняя 
[Ac trans]
-2.7 -3.1 97 -3  1015.3  745  304           
03 18.09.17 тихо ()   20000 м    10/0 средняя 
[Ac As]
+4.2 +2.7 90 +4  1015.5  0.3  746  295           
06 18.09.17 300 (СЗ) 20000 м    10/3 600 м средняя 
[Sc|Ac As]
+8.3 +0.6 58 +8  1014.7  -0.4  745  291           
09 18.09.17 040 (СВ) 20000 м    10/5 600 м средняя 
[Sc|As trans]
+8.5 +1.1 60 +9  1015.2  0.5  746  291           
15 18.09.17 тихо ()   20000 м    10/0 средняя 
[As trans]
+2.8 +1.5 91 +3  1014.9  -1  745  297           
18 18.09.17 тихо ()   20000 м    10/0 средняя 
[As op]
+2.8 +1.8 93 +3  1014  -0.9  745  297           
21 18.09.17 тихо ()   20000 м    9/0 средняя 
[Ac trans]
+4.4 +1.6 82 +4  1012.7  -1  744  295           
00 19.09.17 тихо ()   20000 м  слаб. дождь  10/0 средняя 
[Ac As]
+4.6 +2.6 87 +5  1011.6  -1.1  743  294  +2.7    0.4    влажная 
03 19.09.17 020 (С) 20000 м  слаб. дождь  10/3 600 м средняя 
[Frnb|As op]
+5 +3.1 87 +6  1011.6  743  293           
06 19.09.17 230 (ЮЗ) 20000 м  в посл. час дождь  10/8 600 м средняя 
[Frnb|As op]
+4.4 +3.4 93 +5  1011.5  -0.1  743  294           
09 19.09.17 240 (ЮЗ) 20000 м    10/10 600 м 
[Frnb|Ns]
+4 +2.8 92 +4  1011.8  0.3  743  295           
12 19.09.17 250 (З) 10 км  слаб. морось  10/10 600 м 
[St]
+3.4 +2.4 93 +4  1012.6  0.8  744  296    +5     
15 19.09.17 220 (ЮЗ) 10 км  слаб. морось  10/10 600 м 
[St]
+3.8 +2.8 93 +5  1013  0.4  744  295           
18 19.09.17 220 (ЮЗ) 20000 м  {морось}  10/6 600 м средняя 
[Sc|As op]
+3.5 +2.2 91 +3  1013.7  0.5  744  296           
21 19.09.17 230 (ЮЗ) 20000 м    10/5 600 м средняя 
[Sc|As op]
+3 +2 93 +2  1013.9  0.1  744  296           
00 20.09.17 210 (ЮЗ) 20000 м    10/8 600 м средняя 
[Sc|As op]
+3.3 +1.2 86 +4  1014.4  0.6  745  296  +2.5    0.0    влажная 
03 20.09.17 200 (Ю) 20000 м    9/9 600 м 
[Sc]
+4.3 +0.7 77 +4  1013.8  -0.6  744  295           
06 20.09.17 280 (З) 20000 м    10/10 600 м 
[Sc]
+5.8 +0.4 68 +6  1013.1  -0.4  744  294           
09 20.09.17 320 (СЗ) 20000 м    8/8 600 м 
[Sc]
+3.7 +0.8 81 +5  1013.4  0.2  744  296           
12 20.09.17 тихо ()   20000 м    3/3 600 м 
[Sc]
-0.8 -1.7 94 -1  1014.3  0.3  745  301    +6       
15 20.09.17 тихо ()   20000 м    ясно 
-2 -2 100 -2  1014.2  -0.1  744  302           
18 20.09.17 тихо ()   20000 м    10/0 средняя 
[Ac As]
-1.7 -1.9 99 -2  1014.3  0.1  745  302           
21 20.09.17 тихо ()   20000 м    10/0 средняя 
[Ac As]
-1 -1.4 97 -1  1014.5  0.2  745  301           
00 21.09.17 220 (ЮЗ) 20000 м    9/0 средняя 
[Ac trans]
+0.6 -1.1 88 +1  1014.1  -0.3  744  299  -2.5        замёрзшая 
Время (UTC), дата Ветер
(°,м/с) 
Видим.   Явления Облачность Т
(°С)
Тd
(°С)
f(%) Тe
(°С)
Pmin
(гПа)
dP
(гПа)
Po
(мм)
O2
(г/м3)
Тmin Tmax R s Состояние
почвы

Для получения пояснительной информации подведите курсор к названию столбца.

ПОГОДА Тегюльтя-Терде - архив

Всё, что Вы хотите узнать о погоде Тегюльтя-Терде - удобно и подробно!

Выберите нужную дату (начиная с 1 января 2015* года) и нажмите кнопку "Найти".
Будут отображены архивные сводки погоды по пункту Тегюльтя-Терде, начиная с указанной даты.


Отображать данные в формате CSV (для использования в таблицах Excel)


Внимание! Наш архив погоды предназначен исключительно для личного некоммерческого использования в познавательных целях. Если Вам необходимы официальные справки о состоянии погоды (для производственных, юридических, коммерческих и т.п. целей), обращайтесь в органы Росгидромета.

*Примечание: данная дата относится к архиву по метеостанциям СССР (Россия, СНГ, Балтия).
Архив по метеостанциям Зарубежной Европы и Азии (кроме Китая) хранится 10 дней, по другим регионам земного шара (Китай, Африка, Америка, Австралия, Океания) - 1 день.

Тегюльтя-Терде - район местоположения метеостанции


Название, широта, долгота, высота метеостанции:
Тегюльтя-Терде 60.2°ш. 130.2°д. 171 м над ур. моря [Российская Федерация]

Дополнительная информация

В oтличие oт бoльшинства пoгoдных сайтoв мы публикуем пoдрoбную метеoинфoрмацию в детальнoм прoфессиoнальнoм фoрмате.

Характеристики температуры и влажнoсти вoздуха измеряются на высoте 2 м в тени вдали oт зданий и деревьев.
Скoрoсть ветра измеряется на высoте 10 м (на урoвне рoста челoвека скoрoсть ветра ниже в 1.5-2 раза). Если метеoстанция нахoдится в гoрoде или в лесу, тo скoрoсть ветра занижена на 2-4 м/с пo сравнению с oткрытым местoм. Скoрoсть ветра над акватoриями крупных рек и oзёр, а также на вершинах хoлмoв на 2-5 м/с выше, чем в oбычных услoвиях.
Атмoсфернoе давление в разных тoчках местнoсти мoжет значительнo oтличаться oт давления на метеoстанции, в зависимoсти oт услoвий рельефа (при пoдъёме на 10 м давление пoнижается примернo на 1 мм рт.ст.).